Location: PSU-Greenbush Astrophysical Observatory
(37.5140°N, 94.9880°W)
Time: 15:30:48
(UTC-06:00)

BEESAT - Visible Passes

Search period start: 21 February 2020 00:00
Search period end: 02 March 2020 00:00
Orbit: 700 x 709 km, 98.6° (Epoch: 21 February)

Date Brightness Start Highest point End Pass type
(mag) Time Alt. Az. Time Alt. Az. Time Alt. Az.
21 Feb ? 03:58:52 10° E 04:01:18 14° ENE 04:03:43 10° NNE visible
21 Feb ? 05:33:48 10° S 05:38:30 59° W 05:43:13 10° NNW visible
21 Feb ? 19:14:09 10° NNW 19:17:37 20° WNW 19:21:04 10° WSW visible
22 Feb ? 04:39:57 10° SE 04:44:17 36° ENE 04:48:39 10° N visible
22 Feb ? 06:18:32 10° SW 06:22:06 21° W 06:25:40 10° NW visible
23 Feb ? 03:49:29 10° ENE 03:50:31 11° ENE 03:51:33 10° NE visible
23 Feb ? 05:22:49 10° S 05:27:35 79° WSW 05:32:21 10° NNW visible
23 Feb ? 19:02:52 10° NNW 19:06:47 26° WNW 19:10:41 10° WSW visible
24 Feb ? 04:29:25 10° SE 04:33:27 28° ENE 04:37:30 10° N visible
24 Feb ? 06:07:05 10° SSW 06:11:07 27° W 06:15:08 10° NW visible
25 Feb ? 05:11:54 10° SSE 05:16:40 79° ENE 05:21:26 10° N visible
25 Feb ? 18:51:42 10° N 18:55:57 34° WNW 19:00:12 10° SW visible
26 Feb ? 04:19:00 10° ESE 04:22:37 22° ENE 04:26:15 10° NNE visible
26 Feb ? 05:55:47 10° SSW 06:00:07 35° W 06:04:30 10° NNW visible
26 Feb ? 19:36:51 10° NW 19:38:56 13° WNW 19:41:01 10° W visible
27 Feb ? 05:01:06 10° SSE 05:05:46 60° ENE 05:10:28 10° N visible
27 Feb ? 18:40:36 10° N 18:45:06 44° WNW 18:49:35 10° SW visible
28 Feb ? 04:08:46 10° ESE 04:11:50 17° ENE 04:14:53 10° NNE visible
28 Feb ? 05:44:35 10° S 05:49:10 47° W 05:53:45 10° NNW visible
28 Feb ? 19:25:11 10° NNW 19:28:09 17° WNW 19:31:06 10° WSW visible
29 Feb ? 04:50:22 10° SE 04:54:53 45° ENE 04:59:25 10° N visible
29 Feb ? 18:29:33 10° N 18:34:13 58° WNW 18:38:51 10° SSW visible
01 Mar ? 03:58:48 10° E 04:01:02 13° ENE 04:03:16 10° NE visible
01 Mar ? 05:33:31 10° S 05:38:13 62° WSW 05:42:56 10° NNW visible
01 Mar ? 19:13:47 10° NNW 19:17:20 21° WNW 19:20:53 10° WSW visible
